TimeMST,TemperatureF,Dew PointF,Humidity,Sea Level PressureIn,VisibilityMPH,Wind Direction,Wind SpeedMPH,Gust SpeedMPH,PrecipitationIn,Events,Conditions,WindDirDegrees,DateUTC
12:56 AM,75.0,54.0,48,29.86,-9999.0,WSW,11.5,-,N/A,,Scattered Clouds,240,2013-08-20 07:56:00
1:56 AM,73.9,54.0,50,29.89,-9999.0,North,-9999.0,-,N/A,,Overcast,0,2013-08-20 08:56:00
2:56 AM,73.0,55.0,53,29.89,-9999.0,North,-9999.0,-,N/A,,Mostly Cloudy,0,2013-08-20 09:56:00
3:56 AM,69.1,55.9,63,29.88,-9999.0,SW,4.6,-,N/A,,Overcast,230,2013-08-20 10:56:00
4:56 AM,70.0,55.9,61,29.87,-9999.0,SW,8.1,-,N/A,,Mostly Cloudy,220,2013-08-20 11:56:00
6:56 AM,72.0,55.9,57,29.86,-9999.0,SSW,4.6,-,N/A,,Unknown,210,2013-08-20 13:56:00
7:56 AM,75.9,55.9,50,29.86,-9999.0,North,3.5,-,N/A,,Unknown,360,2013-08-20 14:56:00
8:56 AM,81.0,54.0,39,29.87,-9999.0,ENE,9.2,-,N/A,,Clear,70,2013-08-20 15:56:00
9:56 AM,84.0,52.0,33,29.87,-9999.0,Calm,Calm,-,N/A,,Clear,0,2013-08-20 16:56:00
10:56 AM,88.0,51.1,28,29.86,-9999.0,East,8.1,-,N/A,,Clear,100,2013-08-20 17:56:00
11:56 AM,87.1,51.1,29,29.85,-9999.0,NNE,8.1,-,N/A,,Clear,20,2013-08-20 18:56:00
12:56 PM,88.0,51.1,28,29.81,-9999.0,Variable,3.5,-,N/A,,Clear,0,2013-08-20 19:56:00
1:56 PM,91.0,48.0,23,29.78,-9999.0,NNE,4.6,-,N/A,,Clear,20,2013-08-20 20:56:00
2:56 PM,87.1,51.1,29,29.77,-9999.0,NE,18.4,25.3,N/A,,Partly Cloudy,40,2013-08-20 21:56:00
3:53 PM,71.6,59.0,64,30.14,-9999.0,WSW,19.6,-,0.00,Rain,Light Rain,240,2013-08-20 22:53:00
3:56 PM,71.1,59.0,66,29.88,-9999.0,WSW,18.4,26.5,0.00,Rain,Light Rain,240,2013-08-20 22:56:00
4:56 PM,71.1,55.9,59,29.87,-9999.0,West,16.1,-,N/A,,Partly Cloudy,260,2013-08-20 23:56:00
5:56 PM,68.0,57.9,70,29.88,-9999.0,SW,16.1,-,N/A,,Unknown,220,2013-08-21 00:56:00
6:56 PM,69.1,57.0,65,30.14,-9999.0,SW,17.3,-,0.00,Rain,Light Rain,220,2013-08-21 01:56:00
8:56 PM,68.0,59.0,73,29.95,-9999.0,SSW,8.1,-,0.00,Rain,Light Rain,210,2013-08-21 03:56:00
9:56 PM,66.9,57.9,73,29.95,-9999.0,Calm,Calm,-,0.00,Rain,Light Rain,0,2013-08-21 04:56:00
10:56 PM,66.9,57.9,73,29.92,-9999.0,SW,4.6,-,0.00,,Overcast,220,2013-08-21 05:56:00
11:56 PM,66.0,59.0,78,29.90,-9999.0,WNW,5.8,-,N/A,,Overcast,290,2013-08-21 06:56:00